星链-31235 (STARLINK-31235 )

导读

STARLINK-31235是美国SpaceX公司星链星座的成员卫星,于北京时间2024年2月25日发射入轨,属于星链第二代mini卫星批次,部署在近地轨道。星链项目旨在构建全球卫星互联网星座,为偏远地区、海上等传统通信盲区提供高速低延迟宽带服务。截至该次发射后,SpaceX已累计发射超5800颗星链卫星,持续推进全球星座组网,为全球60多个国家提供卫星互联网服务,推动天地一体化网络建设。

Basic Information
目录编号:
59038
目录名称:
STARLINK-31235
国际标识:
2024-038R
轨道中心:
EARTH
卫星名称:
星链-31235
卫星全名:
星链-31235 (STARLINK-31235 )
卫星状态:
在轨 (已飞行844 天)
发射日期:
2024-02-25 UTC
国别 :
美国 (US)
星等 :
--
Orbit Information
数据来源 国际轨道数据 AOE轨道数据
星历时间 2026-06-16T15:45:54+0800
2天前
查看轨道信息
2026-06-16T10:00:00+0800
2天前
查看轨道信息
半长轴 6861.186km 6861.211km
偏心率 0.0001723 0.0001581
轨道倾角 43.004° 43.001°
近地点辐角 274.290° 268.452°
升交点赤经 186.478° 187.828°
平近点角 85.776° 209.104°
近地点 481.866km 481.989km
远地点 484.232km 484.159km
周期 94.267分钟 94.267分钟
每日圈数 15.275801 15.275719
Detailed Information
固有亮度:
5
最大亮度:
0.3
卫星平台:
Starlink v2.0 mini
覆盖范围:
全球
运营商:
太空探索技术公司
运营商所在国:
美国
制造商(研发单位):
太空探索技术公司
制造商所在国:
美国
使用方式:
暂无
Satellite Introduction
星链(Starlink)计划是由太空探索技术公司(SpaceX)提出的一个巨型低轨卫星互联网星座项目,计划在2019年至2024年间在太空搭建由约1.2万颗卫星组成的“星链”网络,其中1584颗将部署在地球上空550千米处的近地轨道,并从2020年开始工作。该卫星仍在工作。
2D Orbit Map
3D Orbit Map
Orbit Altitude Analysis Chart
Orbit Inclination Analysis Chart
Orbit Comprehensive Analysis Chart
View Comprehensive Chart